User: anonymous   Login
Location: Unspecified
(0.0000°N, 0.0000°E)
Time: 23:53:56
(UTC+02:00)
Language:

GPS 2-05 Rocket1 - Orbit

View from above orbital plane
View from above orbital plane
View from above satellite
View from above satellite

Ground track
Ground track

The orbit data is extracted from the following two-line orbital elements,

1 20362U 89097B   16126.05545412  .00012064  00000-0  23565-3 0  9995
2 20362  35.6101   1.5477 0068099 165.6109 340.3744 15.44118079436520
Epoch (UTC): 05 May 2016 01:19:51
Eccentricity: 0.0068099
inclination: 35.6101°
perigee height: 387 km
apogee height: 480 km
right ascension of ascending node: 1.5477°
argument of perigee: 165.6109°
revolutions per day: 15.44118079
mean anomaly at epoch: 340.3744°
orbit number at epoch: 43652

The dashed part of the orbit path shows where the satellite is in the earth's shadow,  

DLR